Regional Weather Roundup
Issued by NWS Jackson, KY

Home | Current Version | Previous Version | Graphics & Text | Print | Product List | Glossary On
Versions: 1 2 3 4 5 6 7 8 9 10 11 12 13 14 15 16 17 18 19 20 21 22 23 24 25 26 27 28 29 30 31 32 33 34 35 36 37 38 39 40 41 42 43 44 45 46 47 48 49 50
000
ASUS43 KJKL 010711
RWRJKL

EAST KENTUCKY HOURLY WEATHER ROUNDUP
NATIONAL WEATHER SERVICE JACKSON KY
200 AM EST SUN FEB 01 2015

NOTE: "FAIR" INDICATES FEW OR NO CLOUDS BELOW 12,000 FEET WITH
NO SIGNIFICANT WEATHER AND/OR OBSTRUCTIONS TO VISIBILITY.

* THESE REPORTS ARE NOT UNDER NWS QUALITY CONTROL AND MAY NOT
  REPORT WEATHER SUCH AS PRECIPITATION AND FOG.

KYZ079-080-083-085-087-088-110-112-115-119-120-010800
...EASTERN KENTUCKY...

CITY           SKY/WX    TMP DP  RH WIND       PRES   REMARKS
JACKSON        CLOUDY    36  10  34 E5        30.20F WCI  32
LONDON         CLOUDY    37  17  44 CALM      30.19F
SOMERSET*      CLOUDY    36  19  51 CALM      30.20F
MONTICELLO*    CLOUDY    40  11  30 SE6       30.20F
MIDDLESBORO*   CLOUDY    37  22  54 CALM      30.23S
HARLAN APT*    CLOUDY    34  23  64 SW5       30.22R WCI  30
BLACK MTN*       N/A     37  28  70 SW3         N/A
PIKEVILLE APT* CLOUDY    34  16  47 NE7       30.20F WCI  28
BIG SANDY*     CLOUDY    35  17  47 CALM      30.21F
MOREHEAD APT*  CLOUDY    36  19  51 SE3       30.21F
$$

KYZ035-036-041-042-044-050-067-078-099-010800
...CENTRAL KENTUCKY...

CITY           SKY/WX    TMP DP  RH WIND       PRES   REMARKS
MT STERLING*   CLOUDY    36  19  51 SE7       30.19F WCI  30
FLEMING/MASON* CLOUDY    33  23  66 SE5       30.19F WCI  29
DANVILLE*      CLOUDY    32  27  80 N3        30.18F
RICHMOND*      CLOUDY    34  19  55 SE6       30.17F WCI  29
LEXINGTON      CLOUDY    34  20  56 W3        30.20R
FRANKFORT      CLOUDY    34  21  59 CALM      30.19R
$$

KYZ091>093-OHZ055-061-077-WVZ005-015-034-035-042-010800
...SOUTHERN OHIO/WEST VIRGINIA...

CITY           SKY/WX    TMP DP  RH WIND       PRES   REMARKS
COVINGTON      CLOUDY    33  29  85 E5        30.18F WCI  29
COLUMBUS       LGT SNOW  31  27  85 S3        30.19F FOG
DAYTON         FRZ RAIN  33  32  96 CALM      30.18F FOG
WILMINGTON     CLOUDY    32  28  85 NE3       30.17F
HUNTINGTON     CLOUDY    31  23  72 CALM      30.22S
CHARLESTON     CLOUDY    31  21  66 CALM      30.22F
PINEVILLE*     MOCLDY    29  25  83 MISG      30.26F
BECKLEY        MOCLDY    30  12  47 CALM      30.19F
BLUEFIELD      CLOUDY    33  13  43 W6        30.19F WCI  28
$$

VAZ002-007-008-TNZ017-027-036-066-071-010800
...SOUTHWEST VIRGINIA/EAST TENNESSEE...

CITY           SKY/WX    TMP DP  RH WIND       PRES   REMARKS
WISE*          CLOUDY    36   9  32 CALM      30.18R
JONESVILLE*    CLOUDY    34  23  64 CALM      30.25S
ABINGDON*      CLOUDY    35  16  46 E7        30.19F WCI  29
BRISTOL        CLOUDY    34  20  56 CALM      30.21F
KNOXVILLE      CLOUDY    37  25  61 CALM      30.22F
OAK RIDGE      CLOUDY    39  24  55 CALM      30.23F
CROSSVILLE     CLOUDY    41  11  29 S7        30.15F
NASHVILLE      CLOUDY    43  19  38 SE6       30.13F
$$

...KEY TO REMARKS...
VSB - VISIBILITY IN MILES
WCI - WIND CHILL INDEX
HX  - HEAT INDEX

$$


USA.gov is the U.S. government's official web portal to all federal, state and local government web resources and services.